Location: Emory University Observatory
(33.7903°N, 84.3267°W)
Time: 20:22:13
(UTC-05:00)

OTV 5 (USA 277) - Pass Details

Date: 15 October 2017
Orbit: 404 x 417 km, 43.0° (Epoch: 07 September)

Event Time Altitude Azimuth Distance (km) Brightness Sun altitude
Rises 20:18:01 0° 295° (WNW) 2,353 ? -16.3°
Reaches altitude 10° 20:20:41 10° 317° (NW) 1,490 ? -16.9°
Maximum altitude 20:22:57 17° 359° (N) 1,152 ? -17.4°
Enters shadow 20:23:45 16° 17° (NNE) 1,200 ? -17.5°
